| time (UTC) | temp F | wind direction | speed knots | gust knots | rain 1hr in | rain 24hr in | rain mn in | humidity % | barometer mb |
| 20260906030007 | 70 | 84 | 0.9 | 3.5 | 0.00 | 0.00 | 0.00 | 84 | 1016.1 |
| 20260906024507 | 70 | 76 | 1.7 | 7.0 | 0.00 | 0.00 | 0.00 | 84 | 1016.1 |
| 20260906023015 | 71 | 34 | 1.7 | 6.1 | 0.00 | 0.00 | 0.00 | 83 | 1016.2 |
| 20260906021510 | 71 | 61 | 1.7 | 5.2 | 0.00 | 0.00 | 0.00 | 83 | 1016.1 |
| 20260906020011 | 72 | 49 | 1.7 | 4.3 | 0.00 | 0.00 | 0.00 | 82 | 1015.7 |
| 20260906014513 | 72 | 50 | 0.9 | 3.5 | 0.00 | 0.00 | 0.00 | 83 | 1015.4 |
| 20260906013008 | 71 | 15 | 0.9 | 1.7 | 0.00 | 0.00 | 0.00 | 83 | 1014.9 |
| 20260906011509 | 72 | 101 | 0.0 | 1.7 | 0.00 | 0.00 | 0.00 | 80 | 1014.6 |
| 20260906010128 | 73 | 101 | 0.0 | 0.9 | 0.00 | 0.00 | 0.00 | 79 | 1014.2 |
| 20260906004627 | 74 | 101 | 0.9 | 2.6 | 0.00 | 0.00 | 0.00 | 77 | 1013.6 |
| 20260906003021 | 75 | 78 | 2.6 | 5.2 | 0.00 | 0.00 | 0.00 | 76 | 1013.1 |
| 20260906001510 | 76 | 97 | 2.6 | 5.2 | 0.00 | 0.00 | 0.00 | 74 | 1013.2 |
| 20260906000009 | 77 | 88 | 1.7 | 5.2 | 0.00 | 0.00 | 0.00 | 71 | 1013.3 |
| 20260905234622 | 78 | 78 | 2.6 | 8.7 | 0.00 | 0.00 | 0.00 | 69 | 1013.2 |
| 20260905233002 | 79 | 42 | 5.2 | 9.6 | 0.00 | 0.00 | 0.00 | 70 | 1013.2 |
| 20260905231513 | 79 | 40 | 5.2 | 12.2 | 0.00 | 0.00 | 0.00 | 70 | 1013.3 |
| 20260905230132 | 79 | 48 | 3.5 | 11.3 | 0.00 | 0.00 | 0.00 | 69 | 1013.6 |
| 20260905224519 | 79 | 34 | 7.0 | 11.3 | 0.00 | 0.00 | 0.00 | 69 | 1013.9 |
| 20260905223003 | 79 | 31 | 2.6 | 11.3 | 0.00 | 0.00 | 0.00 | 72 | 1013.8 |
| 20260905221512 | 79 | 66 | 3.5 | 10.4 | 0.00 | 0.00 | 0.00 | 71 | 1013.8 |
| 20260905220011 | 78 | 60 | 3.5 | 9.6 | 0.00 | 0.00 | 0.00 | 72 | 1014.1 |
| 20260905214507 | 78 | 57 | 6.1 | 10.4 | 0.00 | 0.00 | 0.00 | 71 | 1014.3 |
| 20260905213012 | 79 | 61 | 5.2 | 10.4 | 0.00 | 0.00 | 0.00 | 71 | 1014.3 |
| 20260905211511 | 79 | 15 | 5.2 | 9.6 | 0.00 | 0.00 | 0.00 | 71 | 1014.3 |
| 20260905210008 | 78 | 60 | 6.1 | 11.3 | 0.00 | 0.00 | 0.00 | 71 | 1014.5 |
| 20260905204512 | 78 | 31 | 2.6 | 8.7 | 0.00 | 0.00 | 0.00 | 73 | 1014.9 |
| 20260905203124 | 77 | 63 | 2.6 | 7.8 | 0.00 | 0.00 | 0.00 | 73 | 1015.3 |
| 20260905201518 | 77 | 34 | 2.6 | 7.0 | 0.00 | 0.00 | 0.00 | 72 | 1015.5 |
| 20260905200023 | 76 | 47 | 2.6 | 7.8 | 0.00 | 0.00 | 0.00 | 75 | 1015.6 |
| 20260905194627 | 76 | 48 | 0.9 | 5.2 | 0.00 | 0.00 | 0.00 | 74 | 1016.0 |
| 20260905193126 | 75 | 56 | 2.6 | 6.1 | 0.00 | 0.00 | 0.00 | 77 | 1015.9 |
| 20260905191626 | 75 | 71 | 0.9 | 6.1 | 0.00 | 0.00 | 0.00 | 76 | 1015.9 |
| 20260905190011 | 75 | 34 | 1.7 | 4.3 | 0.00 | 0.00 | 0.00 | 78 | 1016.1 |
| 20260905184519 | 75 | 77 | 1.7 | 5.2 | 0.00 | 0.00 | 0.00 | 80 | 1016.1 |
| 20260905183010 | 73 | 55 | 0.9 | 5.2 | 0.00 | 0.00 | 0.00 | 79 | 1016.1 |
| 20260905181512 | 73 | 138 | 3.5 | 6.1 | 0.00 | 0.00 | 0.00 | 82 | 1016.1 |
| 20260905180140 | 73 | 111 | 4.3 | 7.0 | 0.00 | 0.00 | 0.00 | 81 | 1016.0 |
| 20260905174524 | 73 | 48 | 2.6 | 5.2 | 0.00 | 0.00 | 0.00 | 82 | 1016.0 |
| 20260905173016 | 72 | 123 | 5.2 | 9.6 | 0.00 | 0.00 | 0.00 | 83 | 1016.3 |
| 20260905171508 | 72 | 69 | 3.5 | 8.7 | 0.00 | 0.00 | 0.00 | 83 | 1016.3 |
| 20260905170132 | 72 | 5 | 2.6 | 5.2 | 0.00 | 0.00 | 0.00 | 83 | 1016.4 |
| 20260905164626 | 71 | 16 | 0.9 | 4.3 | 0.00 | 0.00 | 0.00 | 84 | 1016.5 |
| 20260905163010 | 71 | 71 | 0.9 | 6.1 | 0.00 | 0.00 | 0.00 | 84 | 1016.7 |
| 20260905161514 | 70 | 37 | 0.0 | 3.5 | 0.00 | 0.00 | 0.00 | 85 | 1016.7 |
| 20260905160011 | 70 | 51 | 1.7 | 3.5 | 0.00 | 0.00 | 0.00 | 86 | 1016.7 |
| 20260905154510 | 70 | 33 | 0.9 | 3.5 | 0.00 | 0.00 | 0.00 | 86 | 1016.5 |
| 20260905153016 | 69 | 42 | 2.6 | 5.2 | 0.00 | 0.00 | 0.00 | 89 | 1016.4 |
| 20260905151508 | 67 | 61 | 1.7 | 5.2 | 0.00 | 0.00 | 0.00 | 91 | 1016.3 |
| 20260905150006 | 67 | 50 | 2.6 | 6.1 | 0.00 | 0.00 | 0.00 | 92 | 1016.3 |
| 20260905144523 | 66 | 115 | 1.7 | 4.3 | 0.00 | 0.00 | 0.00 | 93 | 1016.4 |
| 20260905143014 | 65 | 102 | 2.6 | 6.1 | 0.00 | 0.00 | 0.00 | 93 | 1016.5 |
| 20260905141508 | 65 | 44 | 0.9 | 3.5 | 0.00 | 0.00 | 0.00 | 93 | 1016.5 |
| 20260905140122 | 65 | 70 | 1.7 | 5.2 | 0.00 | 0.00 | 0.00 | 93 | 1016.4 |
| 20260905134505 | 64 | 68 | 1.7 | 4.3 | 0.00 | 0.00 | 0.00 | 94 | 1016.2 |
| 20260905133012 | 64 | 76 | 2.6 | 5.2 | 0.00 | 0.00 | 0.00 | 93 | 1015.9 |
| 20260905131508 | 64 | 65 | 2.6 | 5.2 | 0.00 | 0.00 | 0.00 | 94 | 1015.5 |
| 20260905130007 | 63 | 60 | 1.7 | 5.2 | 0.00 | 0.00 | 0.00 | 94 | 1015.0 |
| 20260905124521 | 63 | 59 | 3.5 | 7.8 | 0.00 | 0.00 | 0.00 | 94 | 1015.0 |
| 20260905123127 | 63 | 13 | 3.5 | 7.8 | 0.00 | 0.00 | 0.00 | 94 | 1014.9 |
| 20260905121627 | 62 | 24 | 2.6 | 5.2 | 0.00 | 0.00 | 0.00 | 94 | 1015.0 |
| 20260905120006 | 62 | 27 | 1.7 | 4.3 | 0.00 | 0.00 | 0.00 | 94 | 1015.2 |
| 20260905114628 | 62 | 40 | 0.9 | 4.3 | 0.00 | 0.00 | 0.00 | 93 | 1015.1 |
| 20260905113125 | 62 | 34 | 1.7 | 5.2 | 0.00 | 0.00 | 0.00 | 93 | 1015.0 |
| 20260905111516 | 62 | 42 | 0.0 | 3.5 | 0.00 | 0.00 | 0.00 | 93 | 1014.9 |
| 20260905110013 | 62 | 44 | 0.9 | 3.5 | 0.00 | 0.00 | 0.00 | 93 | 1014.8 |
| 20260905104517 | 62 | 13 | 1.7 | 3.5 | 0.00 | 0.00 | 0.00 | 93 | 1014.7 |
| 20260905103010 | 62 | 58 | 2.6 | 8.7 | 0.00 | 0.00 | 0.00 | 93 | 1014.2 |
| 20260905101505 | 62 | 53 | 5.2 | 10.4 | 0.00 | 0.00 | 0.00 | 93 | 1014.0 |
| 20260905100009 | 62 | 43 | 2.6 | 9.6 | 0.00 | 0.00 | 0.00 | 93 | 1013.7 |
| 20260905094516 | 62 | 49 | 2.6 | 8.7 | 0.00 | 0.00 | 0.00 | 93 | 1013.5 |
| 20260905093010 | 62 | 84 | 4.3 | 11.3 | 0.00 | 0.00 | 0.00 | 93 | 1013.6 |
| 20260905091503 | 62 | 71 | 3.5 | 9.6 | 0.00 | 0.00 | 0.00 | 93 | 1013.9 |
| 20260905090005 | 62 | 65 | 3.5 | 7.8 | 0.00 | 0.00 | 0.00 | 93 | 1014.3 |
| 20260905084507 | 62 | 44 | 4.3 | 7.8 | 0.00 | 0.00 | 0.00 | 93 | 1014.4 |
| 20260905083013 | 62 | 44 | 3.5 | 8.7 | 0.00 | 0.00 | 0.00 | 93 | 1014.4 |
| 20260905081508 | 62 | 45 | 3.5 | 8.7 | 0.00 | 0.00 | 0.00 | 92 | 1014.5 |
| 20260905080005 | 62 | 49 | 2.6 | 7.0 | 0.00 | 0.00 | 0.00 | 92 | 1014.7 |
| 20260905074509 | 62 | 67 | 3.5 | 7.8 | 0.00 | 0.00 | 0.00 | 92 | 1014.6 |
| 20260905073015 | 63 | 34 | 3.5 | 7.0 | 0.00 | 0.00 | 0.00 | 92 | 1014.5 |
| 20260905071509 | 62 | 59 | 1.7 | 7.8 | 0.00 | 0.00 | 0.00 | 92 | 1014.5 |
| 20260905070006 | 63 | 57 | 3.5 | 7.8 | 0.00 | 0.00 | 0.00 | 92 | 1014.4 |
| 20260905064630 | 63 | 51 | 2.6 | 7.8 | 0.00 | 0.00 | 0.00 | 91 | 1014.4 |
| 20260905063005 | 63 | 40 | 1.7 | 7.0 | 0.00 | 0.00 | 0.00 | 91 | 1014.4 |
| 20260905061514 | 63 | 355 | 3.5 | 7.8 | 0.00 | 0.00 | 0.00 | 91 | 1014.2 |
| 20260905060012 | 64 | 336 | 3.5 | 7.8 | 0.00 | 0.00 | 0.00 | 91 | 1014.3 |
| 20260905054515 | 64 | 30 | 4.3 | 9.6 | 0.00 | 0.00 | 0.00 | 90 | 1014.2 |
| 20260905053012 | 64 | 57 | 4.3 | 9.6 | 0.00 | 0.00 | 0.00 | 90 | 1014.3 |
| 20260905051520 | 64 | 329 | 4.3 | 8.7 | 0.00 | 0.00 | 0.00 | 90 | 1014.2 |
| 20260905050128 | 64 | 85 | 2.6 | 6.1 | 0.00 | 0.00 | 0.00 | 90 | 1014.1 |
| 20260905044509 | 64 | 29 | 3.5 | 7.8 | 0.00 | 0.00 | 0.00 | 90 | 1014.0 |
| 20260905043014 | 64 | 32 | 2.6 | 9.6 | 0.00 | 0.00 | 0.00 | 90 | 1014.0 |
| 20260905041506 | 64 | 55 | 4.3 | 8.7 | 0.00 | 0.00 | 0.00 | 90 | 1014.1 |
| 20260905040141 | 64 | 40 | 2.6 | 8.7 | 0.00 | 0.00 | 0.00 | 90 | 1014.2 |
| 20260905034510 | 64 | 50 | 4.3 | 11.3 | 0.00 | 0.00 | 0.00 | 89 | 1014.1 |
| 20260905033011 | 64 | 55 | 3.5 | 11.3 | 0.00 | 0.00 | 0.00 | 89 | 1014.0 |
| 20260905031633 | 64 | 67 | 4.3 | 10.4 | 0.00 | 0.00 | 0.00 | 89 | 1014.1 |